Temperature
18 18 18 18 18 18 18 17 17 17 17 17 17 17 17 17 17 17 17 17 17 17 17 17 17 17 16 16 16 16 16 16 16 16 16 16 16 16 15 15 15 15 15
18 18 18 18 18 18 18 17 17 17 17 17 17 17 17 17 17 17 17 17 17 17 17 17 17 17 16 16 16 16 16 16 16 16 16 16 16 15 15 15 15 15 15
18 18 18 18 18 18 17 17 17 17 17 17 17 17 17 17 17 17 17 17 17 17 17 16 16 16 16 16 16 16 16 16 16 16 16 16 16 15 15 15 15 15 15
18 18 18 18 18 17 17 17 17 17 17 17 17 17 17 17 17 17 17 17 17 17 16 16 16 16 16 16 16 16 16 16 16 16 16 16 15 15 15 15 15 15 15
18 18 18 18 17 17 17 17 17 17 17 17 17 17 17 17 17 17 17 17 17 16 16 16 16 16 16 16 16 16 16 16 16 16 16 15 15 15 15 15 15 15 15
18 18 17 17 17 17 17 17 17 17 17 17 17 17 17 17 17 17 17 17 17 16 16 16 16 16 16 16 16 16 16 16 16 15 15 15 15 15 15 15 15 15 15
17 17 17 17 17 17 17 17 17 17 17 17 17 17 17 17 17 17 17 17 17 16 16 16 16 16 16 16 16 16 15 15 15 15 15 15 15 15 15 15 15 15 15
17 17 17 17 17 17 17 17 17 17 17 17 17 17 17 17 17 17 17 17 17 16 16 16 16 16 16 16 16 16 15 15 15 15 15 15 15 15 15 15 15 15 15
17 17 17 17 17 17 17 17 17 17 17 17 17 17 17 17 17 17 17 17 17 17 17 16 16 16 16 16 16 16 16 15 15 15 15 15 15 15 15 15 15 15 15
17 17 17 17 17 17 17 17 17 17 17 17 17 17 17 17 17 17 17 17 17 17 17 17 17 16 16 16 16 16 16 16 15 15 15 15 15 15 15 15 15 15 15
17 17 17 17 17 17 17 17 17 17 17 17 17 17 17 17 17 17 17 17 17 17 17 17 17 17 16 16 16 16 16 16 16 15 15 15 15 15 15 15 15 15 15
17 17 17 17 17 17 17 17 17 17 17 17 17 17 17 17 17 17 17 17 17 17 17 17 17 17 17 16 16 16 16 16 16 15 15 15 15 15 15 15 15 15 14
17 17 17 17 17 17 17 17 17 17 17 16 17 17 17 17 17 17 17 17 17 17 17 17 17 17 17 17 17 16 16 16 16 16 15 15 15 15 15 15 15 14 14
17 17 17 17 17 17 17 17 17 17 17 16 16 16 16 17 17 17 17 17 17 17 17 17 17 17 17 17 17 16 16 16 16 16 15 15 15 15 15 15 15 14 14
17 17 17 17 17 17 17 17 17 17 16 16 16 16 16 16 16 16 17 17 17 17 17 17 17 17 17 17 17 16 16 16 16 16 15 15 15 15 15 15 15 14 14
17 17 17 17 17 17 17 17 17 16 16 16 16 16 16 16 16 16 16 16 16 16 16 17 17 17 17 17 17 17 16 16 16 16 16 15 15 15 15 15 14 14 14
17 17 17 17 17 17 17 17 16 16 16 16 16 16 16 16 16 16 16 16 16 16 16 16 16 16 16 16 16 16 16 16 16 16 16 15 15 15 15 15 14 14 14
17 17 17 17 17 17 16 16 16 16 16 16 16 16 16 16 16 16 16 16 16 16 16 16 16 16 16 16 16 16 16 16 16 16 15 15 15 15 15 15 14 14 14
16 17 17 16 17 17 16 16 16 16 16 16 16 16 16 16 16 16 16 16 16 15 15 15 15 16 16 16 16 16 16 16 15 15 15 15 15 15 15 14 14 14 14
16 16 16 16 16 16 16 16 16 16 16 16 16 16 16 15 15 15 15 15 15 15 15 15 15 15 15 15 15 15 15 15 15 15 15 15 15 14 14 14 14 14 14
16 16 16 16 16 16 16 16 16 16 16 16 15 15 15 15 15 15 15 15 15 15 15 15 15 15 15 15 14 14 14 14 14 14 14 14 14 14 14 14 14 14 14
16 16 16 16 16 16 16 16 16 16 15 15 15 15 15 15 15 15 15 15 14 14 14 14 14 14 14 14 14 14 13 13 14 14 14 14 14 13 14 13 13 13 13
16 16 16 16 16 16 16 15 15 15 15 15 15 15 15 14 14 14 14 14 14 14 14 14 13 13 13 13 13 13 13 13 13 13 13 13 13 13 13 13 13 13 13
15 15 15 15 15 15 15 15 15 15 15 15 15 15 14 14 14 14 14 14 13 13 13 13 13 13 13 12 12 12 12 12 12 12 12 12 12 12 12 12 12 12 12
15 15 15 15 15 14 14 14 14 14 14 14 14 14 14 14 14 13 13 13 13 13 13 12 12 12 12 12 12 12 12 11 11 12 11 11 11 11 11 12 12 11 11
15 14 14 14 14 14 14 14 14 14 14 14 14 13 13 13 13 13 13 13 12 12 12 12 12 12 12 11 11 11 11 11 10 10 11 10 10 10 10 10 11 10 10
Wind_Speed
4 4 3 4 4 4 4 3 3 3 3 3 4 5 6 6 7 7 7 10 11 11 10 10 10 9 9 9 9 8 8 8 8 8 8 8 8 7 7 7 7 6 6
6 5 4 4 4 4 4 4 3 3 2 2 3 4 5 6 7 7 6 8 10 11 11 11 10 10 9 9 9 9 9 9 8 8 8 8 8 8 8 7 7 7 7
8 6 4 4 4 5 4 4 3 3 2 2 2 3 4 5 6 7 7 7 8 9 11 11 10 10 10 10 10 9 9 9 9 9 9 9 9 9 9 9 8 8 8
10 7 5 4 5 5 4 3 2 2 2 2 2 1 2 3 5 6 6 7 7 7 8 10 11 11 10 10 10 9 9 10 10 10 10 10 10 10 10 10 9 9 9
12 9 6 5 6 5 4 4 2 2 2 2 2 1 1 2 3 4 5 6 7 7 7 9 10 11 11 10 10 10 10 10 10 11 11 10 11 11 11 11 11 11 11
12 10 6 6 6 4 4 3 3 2 2 2 2 1 0 1 2 3 4 5 6 8 8 8 8 10 11 11 11 11 10 10 10 11 11 11 11 11 12 12 12 12 12
11 10 6 5 6 5 5 5 3 3 2 2 3 2 2 1 1 2 3 4 6 7 8 9 9 9 9 11 12 12 12 11 11 11 10 10 11 12 12 12 13 13 13
12 10 8 6 6 5 5 5 4 3 2 2 3 2 1 2 2 1 2 4 5 5 7 8 9 9 9 8 10 12 13 12 12 11 11 12 12 12 13 13 13 13 13
12 10 9 8 7 7 6 6 6 6 4 2 1 3 3 3 2 1 1 3 3 4 5 7 8 9 9 9 9 11 13 13 13 12 12 12 13 12 12 13 13 14 14
10 11 10 9 8 6 7 7 6 4 5 3 2 1 2 3 2 1 2 1 3 4 5 5 7 8 9 9 10 12 13 13 13 13 13 13 12 12 13 13 13 13 13
8 10 10 9 8 7 7 7 6 5 4 4 4 3 2 1 1 2 2 2 2 3 4 5 6 7 8 10 10 12 13 13 13 13 13 13 13 12 12 12 12 12 13
6 8 9 8 8 7 7 7 7 7 5 4 4 3 3 3 3 3 3 2 2 2 3 4 5 7 8 9 11 12 13 14 14 14 14 14 14 13 12 12 12 12 12
5 8 8 7 7 7 7 7 7 7 6 6 5 4 3 3 3 3 3 2 2 2 2 2 4 7 8 9 10 12 13 14 14 14 14 14 14 14 13 13 13 13 13
7 7 8 8 8 8 7 7 6 6 6 6 6 5 4 4 4 4 4 3 1 1 2 3 2 5 7 8 11 12 11 13 14 14 14 14 14 14 14 14 14 13 13
6 7 8 8 8 8 8 7 6 6 6 6 6 6 4 4 4 4 3 4 4 3 3 3 3 3 5 7 10 9 10 12 13 14 14 15 15 15 15 15 15 15 15
7 8 8 8 8 8 8 7 5 5 6 5 5 6 5 4 4 4 4 4 4 4 4 3 3 2 3 5 7 9 11 12 13 14 14 15 15 15 16 16 16 16 16
8 8 8 8 8 8 7 6 6 7 7 6 6 6 6 5 4 4 4 4 4 4 5 3 2 2 2 3 3 5 7 8 9 13 14 15 15 16 16 16 17 18 18
7 8 7 7 8 7 7 8 8 7 7 7 7 6 6 5 5 4 4 4 4 5 4 4 2 2 3 3 3 3 4 6 7 10 13 14 14 15 16 17 18 18 18
7 7 7 7 7 7 8 8 8 7 7 7 7 7 6 6 5 4 5 5 4 4 4 3 3 2 2 1 2 2 3 3 6 8 9 11 13 15 16 17 17 17 17
7 6 6 6 6 6 6 7 7 6 6 6 6 6 6 6 6 6 5 5 4 4 4 3 3 3 3 2 1 2 3 3 4 5 6 8 10 12 13 14 14 15 15
6 6 6 5 5 5 5 6 6 6 6 5 4 5 5 6 6 5 4 5 5 4 3 3 3 2 2 2 2 2 4 4 4 3 4 5 5 6 8 9 11 13 14
5 5 5 5 4 3 5 7 6 5 5 5 4 3 3 4 5 6 6 5 5 5 4 3 3 4 4 4 3 3 3 4 5 2 3 5 4 5 6 7 9 11 12
5 4 4 4 3 2 3 5 6 4 4 4 3 3 2 2 3 2 2 3 3 4 5 4 4 5 5 4 3 4 4 5 6 4 3 6 4 6 7 9 11 12 12
5 4 4 4 3 2 3 3 4 3 3 3 3 3 3 1 1 2 2 1 1 1 2 3 4 4 4 3 3 4 4 5 5 4 3 5 5 6 6 8 11 12 12
5 4 4 4 3 2 2 2 3 2 2 2 2 2 2 2 2 2 2 1 0 1 1 1 0 1 2 3 1 1 2 3 4 4 2 3 4 5 6 6 8 10 11
5 5 4 4 4 3 4 2 3 3 3 3 3 3 4 3 3 3 2 1 0 1 2 2 3 3 3 4 3 1 2 3 3 3 1 2 3 3 4 3 4 6 8
Wind_Direction
162 160 160 157 153 148 144 140 138 137 137 149 161 164 168 174 174 179 187 190 187 187 186 184 183 184 183 182 180 182 183 181 179 179 180 178 177 176 177 176 174 173 175
172 169 169 172 176 174 167 160 156 144 142 154 167 176 180 182 185 185 192 198 198 196 195 194 193 192 193 193 193 193 193 194 192 192 193 194 191 194 195 193 192 193 194
181 178 178 186 191 184 168 147 140 131 139 146 162 177 182 189 190 191 197 204 208 208 206 204 201 200 200 201 204 204 202 201 199 201 204 205 205 207 206 207 206 206 207
188 184 187 195 190 177 162 150 143 135 141 147 158 178 176 193 200 199 201 206 209 213 217 215 212 209 209 210 210 210 210 210 207 207 211 214 216 217 216 218 218 218 216
192 190 192 193 180 167 165 169 147 146 155 157 167 163 176 198 209 210 210 215 214 215 220 225 224 220 220 221 220 217 216 217 216 216 217 220 222 223 223 225 226 226 223
194 190 190 185 175 167 169 164 147 129 132 146 141 106 53 251 227 225 222 224 224 221 222 226 228 230 231 230 228 225 223 224 223 223 224 225 226 228 228 229 231 231 231
193 187 188 178 178 180 178 168 147 136 119 124 100 56 10 351 247 236 230 225 229 227 223 226 226 229 233 235 234 232 230 230 230 230 230 231 232 233 233 234 234 235 236
193 192 183 181 180 172 165 168 151 137 129 141 131 114 24 340 312 245 222 222 229 229 229 230 227 227 230 231 234 235 235 234 234 233 233 234 236 237 238 238 239 239 240
191 188 186 182 179 176 179 179 169 153 152 154 154 146 153 220 280 305 249 230 227 225 233 232 230 231 230 232 237 238 237 236 237 237 236 238 240 242 243 242 242 242 243
188 187 184 182 180 178 177 181 174 162 151 163 161 134 147 155 162 275 311 269 240 232 235 233 233 231 229 229 234 238 240 241 240 239 239 240 240 242 244 245 245 245 245
188 187 184 182 181 182 180 177 168 169 167 166 167 155 133 103 128 158 245 291 279 244 233 231 235 235 232 230 234 239 239 239 240 241 241 242 240 241 244 246 248 248 249
186 186 184 182 182 183 182 182 176 176 177 168 168 165 160 161 181 172 200 237 256 270 249 234 233 235 235 232 235 237 237 238 240 241 243 245 245 245 245 246 248 250 253
190 190 184 180 180 185 182 174 175 179 178 177 179 184 182 185 166 164 169 201 241 282 293 256 236 233 233 230 236 237 237 238 239 240 242 244 245 246 247 249 250 252 255
190 180 178 180 181 182 182 174 176 183 181 185 190 184 186 196 184 176 171 165 187 277 280 265 261 235 234 230 236 235 237 237 238 241 244 245 246 248 250 251 251 253 256
178 174 177 181 183 181 177 172 180 185 181 190 193 193 196 199 194 197 186 179 175 212 250 255 254 251 238 233 237 232 235 240 240 242 245 247 248 249 250 251 252 254 256
178 173 181 184 182 180 178 177 179 183 184 192 193 194 202 203 196 196 197 196 193 197 232 246 245 265 257 246 240 233 238 244 245 246 247 249 250 250 252 253 254 256 257
180 181 184 182 182 181 178 179 186 189 193 200 202 199 208 201 197 198 194 191 194 189 219 254 249 266 261 256 258 243 244 244 250 250 251 252 252 253 254 257 258 258 258
184 184 181 180 183 181 178 183 193 195 198 205 208 202 211 203 202 199 193 199 202 200 205 234 248 255 252 258 260 262 261 256 255 258 256 254 254 256 259 261 261 260 260
180 179 175 181 184 183 186 193 196 197 201 207 205 204 209 198 208 207 200 205 208 203 203 216 241 245 263 280 274 273 274 270 270 266 261 257 258 261 262 261 261 260 260
173 173 174 180 181 182 189 196 195 194 196 203 201 204 209 204 209 208 207 209 204 201 201 214 235 246 254 265 256 267 279 268 273 275 268 266 264 264 263 261 260 260 259
163 161 163 172 175 179 193 193 191 189 189 196 197 204 211 207 207 205 205 203 196 203 207 218 234 245 252 251 253 252 266 281 275 263 272 273 271 271 270 265 262 261 261
136 145 159 167 169 186 187 181 177 178 180 185 192 201 206 210 218 216 211 197 187 197 213 218 231 241 255 255 259 258 263 278 282 260 257 277 270 272 273 269 267 263 263
127 133 138 138 138 138 147 159 166 169 175 178 183 188 198 206 204 201 205 208 214 215 207 212 234 247 257 256 255 261 256 258 265 276 266 278 273 273 275 269 263 260 262
113 114 115 121 118 100 122 152 176 173 166 167 173 177 182 191 169 169 166 169 226 247 235 222 236 255 266 270 256 263 270 273 272 266 239 269 280 278 281 274 263 259 263
114 109 103 106 104 72 68 141 159 150 136 118 104 96 110 116 72 112 138 155 55 354 24 35 356 335 338 331 291 278 293 287 289 284 234 254 282 290 287 278 273 270 270
115 109 95 88 92 75 51 83 142 127 118 107 92 80 71 78 74 85 114 129 145 324 348 359 7 9 6 8 11 298 269 279 289 289 291 271 289 306 295 284 293 297 290
Height
1553 1555 1557 1559 1561 1562 1564 1566 1568 1570 1571 1572 1574 1575 1576 1576 1577 1578 1579 1580 1580 1581 1582 1584 1585 1586 1587 1588 1589 1590 1591 1592 1593 1594 1594 1595 1596 1597 1598 1599 1599 1600 1601
1553 1555 1557 1559 1561 1563 1565 1567 1568 1570 1571 1573 1574 1575 1576 1577 1578 1578 1579 1580 1581 1582 1583 1584 1585 1586 1586 1587 1588 1589 1590 1591 1592 1593 1594 1595 1596 1597 1598 1598 1599 1600 1600
1553 1556 1557 1559 1561 1563 1565 1566 1568 1570 1571 1573 1574 1575 1576 1577 1577 1578 1579 1580 1581 1582 1582 1583 1584 1585 1586 1587 1588 1589 1590 1591 1592 1593 1594 1595 1595 1596 1597 1598 1598 1599 1600
1553 1555 1557 1559 1561 1563 1564 1566 1568 1569 1571 1572 1573 1574 1575 1577 1577 1578 1579 1580 1581 1581 1582 1583 1584 1585 1586 1586 1587 1588 1589 1590 1591 1591 1592 1593 1594 1595 1596 1597 1597 1598 1598
1552 1554 1556 1558 1560 1562 1564 1565 1567 1569 1570 1571 1572 1574 1575 1576 1577 1578 1578 1579 1580 1581 1582 1583 1583 1584 1585 1585 1586 1587 1587 1588 1589 1590 1591 1592 1593 1594 1594 1595 1596 1597 1597
1550 1553 1555 1557 1559 1561 1563 1564 1566 1568 1569 1571 1572 1573 1574 1575 1576 1577 1578 1579 1579 1580 1581 1582 1582 1583 1584 1584 1585 1586 1586 1587 1588 1589 1590 1590 1591 1592 1593 1593 1594 1595 1595
1548 1551 1553 1555 1558 1560 1561 1563 1565 1566 1568 1569 1571 1572 1573 1574 1574 1576 1576 1577 1578 1579 1580 1581 1581 1582 1583 1583 1584 1584 1585 1586 1586 1587 1588 1588 1589 1590 1591 1591 1592 1592 1593
1545 1548 1551 1553 1556 1558 1560 1562 1563 1565 1566 1568 1569 1570 1572 1573 1573 1574 1575 1576 1577 1578 1578 1579 1580 1581 1581 1582 1582 1583 1583 1584 1585 1585 1586 1586 1587 1587 1588 1588 1589 1589 1590
1542 1545 1548 1551 1553 1556 1558 1560 1561 1563 1565 1566 1568 1570 1570 1570 1571 1572 1573 1574 1575 1576 1577 1578 1578 1579 1580 1580 1581 1581 1582 1582 1583 1583 1583 1584 1584 1585 1585 1585 1586 1586 1587
1539 1542 1545 1548 1551 1553 1555 1557 1559 1561 1563 1564 1566 1567 1569 1569 1570 1570 1572 1572 1573 1574 1575 1576 1576 1577 1578 1578 1579 1579 1579 1580 1580 1581 1581 1581 1582 1582 1582 1582 1582 1583 1583
1536 1539 1542 1545 1548 1550 1552 1555 1557 1559 1561 1562 1564 1565 1567 1568 1569 1569 1570 1570 1571 1572 1573 1573 1574 1575 1576 1576 1577 1577 1577 1578 1578 1578 1578 1579 1579 1579 1579 1579 1579 1579 1579
1532 1535 1538 1541 1544 1547 1549 1552 1554 1556 1558 1560 1562 1563 1565 1566 1567 1568 1568 1568 1569 1570 1570 1571 1572 1573 1573 1574 1574 1575 1575 1576 1576 1576 1576 1576 1576 1576 1576 1576 1576 1575 1575
1527 1531 1535 1538 1541 1544 1546 1549 1551 1553 1555 1557 1559 1561 1562 1564 1565 1566 1566 1567 1567 1568 1568 1569 1570 1570 1571 1571 1572 1572 1573 1573 1573 1573 1573 1573 1573 1573 1573 1572 1572 1572 1572
1524 1528 1531 1535 1538 1541 1543 1546 1548 1550 1553 1555 1556 1558 1559 1561 1562 1563 1564 1565 1565 1565 1566 1566 1567 1568 1568 1569 1569 1570 1570 1570 1570 1570 1570 1570 1570 1570 1569 1569 1569 1568 1568
1520 1524 1528 1531 1535 1537 1540 1543 1545 1547 1549 1551 1553 1555 1556 1558 1559 1560 1561 1562 1563 1563 1563 1563 1564 1565 1565 1566 1566 1566 1567 1567 1567 1567 1567 1567 1566 1566 1566 1565 1565 1564 1564
1517 1521 1525 1528 1531 1534 1537 1539 1541 1544 1546 1548 1550 1551 1553 1554 1556 1557 1558 1559 1559 1560 1560 1560 1561 1561 1562 1562 1562 1563 1563 1563 1563 1563 1563 1563 1562 1562 1561 1561 1561 1560 1560
1513 1517 1521 1524 1527 1530 1533 1536 1538 1540 1542 1544 1546 1547 1549 1551 1552 1553 1554 1555 1555 1556 1556 1556 1557 1557 1558 1558 1558 1558 1558 1558 1558 1558 1558 1558 1557 1557 1556 1556 1556 1555 1555
1510 1514 1518 1521 1524 1527 1529 1532 1534 1536 1538 1540 1542 1543 1545 1547 1548 1549 1549 1550 1551 1552 1552 1552 1552 1553 1553 1554 1554 1554 1554 1553 1553 1553 1553 1553 1552 1551 1551 1550 1550 1549 1549
1507 1511 1514 1517 1520 1523 1526 1528 1530 1532 1534 1536 1538 1539 1541 1542 1543 1544 1545 1546 1547 1547 1547 1548 1548 1548 1549 1549 1549 1548 1548 1548 1548 1548 1547 1547 1546 1546 1545 1544 1544 1543 1543
1504 1508 1511 1514 1517 1520 1522 1525 1527 1529 1531 1532 1534 1535 1536 1538 1539 1540 1541 1542 1542 1543 1543 1543 1543 1543 1544 1543 1543 1543 1543 1542 1542 1542 1541 1541 1540 1539 1538 1538 1537 1537 1536
1502 1505 1508 1511 1514 1516 1519 1521 1523 1525 1527 1528 1529 1531 1532 1533 1535 1536 1537 1537 1538 1538 1538 1538 1538 1538 1538 1538 1538 1537 1537 1536 1535 1535 1535 1534 1533 1532 1531 1531 1530 1529 1528
1500 1503 1506 1509 1511 1513 1516 1518 1520 1521 1523 1525 1526 1527 1528 1529 1531 1532 1533 1533 1534 1534 1534 1534 1533 1533 1533 1533 1533 1532 1531 1530 1529 1529 1528 1527 1527 1525 1524 1523 1522 1522 1521
1499 1502 1505 1507 1509 1511 1513 1515 1516 1518 1520 1521 1522 1523 1524 1525 1527 1528 1528 1529 1529 1529 1529 1529 1529 1528 1528 1528 1527 1526 1525 1524 1523 1522 1521 1519 1519 1518 1517 1516 1515 1514 1513
1499 1502 1504 1505 1507 1509 1511 1512 1514 1516 1517 1518 1519 1520 1521 1522 1523 1523 1524 1525 1525 1525 1525 1524 1524 1524 1523 1523 1522 1521 1520 1519 1517 1517 1515 1513 1512 1511 1510 1508 1507 1506 1505
1499 1501 1503 1505 1506 1507 1509 1511 1512 1513 1514 1515 1516 1517 1518 1519 1519 1520 1521 1521 1521 1521 1521 1521 1520 1520 1519 1518 1517 1516 1515 1513 1511 1511 1509 1507 1505 1503 1502 1501 1500 1499 1498
1498 1500 1502 1504 1505 1506 1508 1509 1510 1511 1512 1513 1514 1514 1515 1516 1516 1517 1517 1518 1518 1518 1518 1517 1517 1516 1515 1513 1512 1511 1510 1509 1507 1505 1504 1503 1500 1498 1495 1494 1493 1492 1490